Notices

What's New in latest Release from April 7th, 2021:

- Updated Glossary, including Speed of Maximum Gust, and Total Hourly Precipitation

- Updated national and regional climate services offices contacts and prices information

- Addition of station inventory lists for 1981-2010, 1971-2000, and 1961-1990 Normals.

If you haven't already, please take our survey and provide feedback about our website: https://eccc.sondage-survey.ca/f/LanguageSelection.aspx?s=442ca660-fcf1-47c0-95a9-59707d6fd709

Hourly Data Report for January 11, 2003

TORONTO CITY
ONTARIO

43°40'00.000" N
79°24'00.000" W
112.50 m
6158355
71508
XTO

Download Data

Hourly Data (January 2003)
Hourly Data Report for January 11, 2003
TIME
LST
Temp Definition
°C
Dew Point Definition
°C
Rel Hum Definition
%
Precip. Amount Definition
mm

Wind Dir Definition
10's deg

Wind Spd Definition
km/h
Visibility Definition
km
Stn Press Definition
kPa
Hmdx Definition


Wind Chill Definition


Weather Definition


00:00 -6.9 -10.7 74     0 LegendMM 99.15     LegendNANA
01:00
02:00 -6.0 -10.7 69     0 LegendMM 99.20     LegendNANA
03:00 -5.4 -10.1 69     0 LegendMM 99.29     LegendNANA
04:00 -6.1 -10.1 73     0 LegendMM 99.33     LegendNANA
05:00 -6.7 -9.8 79     0 LegendMM 99.38     LegendNANA
06:00 -5.7 -9.3 76     0 LegendMM 99.45     LegendNANA
07:00 -6.2 -9.5 77     0 LegendMM 99.51     LegendNANA
08:00 -5.7 -9.3 76     0 LegendMM 99.54     LegendNANA
09:00 -4.8 -9.5 70     0 LegendMM 99.60     LegendNANA
10:00 -4.3 -9.6 66     0 LegendMM 99.66     LegendNANA
11:00 -3.7 -9.6 64     0 LegendMM 99.72     LegendNANA
12:00 -3.5 -9.0 66     0 LegendMM 99.67     LegendNANA
13:00 -3.7 -9.4 65     0 LegendMM 99.67     LegendNANA
14:00 -3.4 -9.5 63     0 LegendMM 99.70     LegendNANA
15:00 -3.4 -9.9 61     0 LegendMM 99.76     LegendNANA
16:00 -3.8 -10.1 62     0 LegendMM 99.84     LegendNANA
17:00 -4.2 -10.1 63     0 LegendMM 99.91     LegendNANA
18:00 -4.5 -9.6 67     0 LegendMM 99.99     LegendNANA
19:00 -4.7 -9.6 69     0 LegendMM 100.03     LegendNANA
20:00 -4.5 -9.2 70     0 LegendMM 100.09     LegendNANA
21:00 -4.3 -8.9 70     0 LegendMM 100.11     LegendNANA
22:00 -4.2 -8.8 70     0 LegendMM 100.13     LegendNANA
23:00 -4.1 -8.7 70     0 LegendMM 100.15     LegendNANA

Notes on Data Quality.

Legend

  • E = Estimated
  • M = Missing
  • NA = Not Available*
  • [empty] = Indicates an unobserved value
Date modified: